Location: Newark
(57.7279°N, 5.6916°W)
Time: 05:30:18
(UTC+00:00)

N. Korean satellite - Pass Details

Date: 10 December 2019
Orbit: 454 x 507 km, 97.2° (Epoch: 26 January)

Event Time Altitude Azimuth Distance (km) Brightness Sun altitude
Rises 18:49:15 0° 223° (SW) 2,607 11.0 -23.7°
Reaches altitude 10° 18:53:03 10° 263° (W) 1,723 10.4 -24.2°
Maximum altitude 18:53:53 11° 276° (W) 1,685 10.3 -24.3°
Drops below altitude 10° 18:54:43 10° 289° (WNW) 1,722 10.2 -24.4°
Sets 18:58:31 0° 330° (NNW) 2,602 10.6 -24.9°
